Weather History for Jefferson, NC

Change the Weather History Date:

Thursday, June 21, 2012

  Actual Average Record
Temperature  
Mean Temperature 70 °F -  
Max Temperature 78 °F 78 °F 85 °F (1981)
Min Temperature 62 °F 55 °F 43 °F (1968)
Cooling Degree Days 5    
Growing Degree Days 20 (Base 50)    
Moisture  
Dew Point 61 °F    
Average Humidity 76    
Maximum Humidity 94    
Minimum Humidity 44    
Precipitation  
Precipitation 0.10 in - - ()
Sea Level Pressure  
Sea Level Pressure 30.16 in    
Wind  
Wind Speed 1 mph (NW)    
Max Wind Speed 8 mph    
Max Gust Speed 18 mph    
Visibility 8 miles    
Events Rain    
Averages and records for this station are not official NWS values.
T = Trace of Precipitation, MM = Missing Value Source: NWS Daily Summary

Daily Weather History Graph

Daily Weather History Graph

Search for Another Location

Airport:

Trip Planner

Search our weather history database for the weather conditions in past years. The results will help you decide how hot, cold, wet, or windy it might be!

Date:

Astronomy

Jun. 21, 2012 Rise Set
Actual Time 6:08 AM EDT 8:47 PM EDT
Civil Twilight 5:37 AM EDT 9:17 PM EDT
Nautical Twilight 4:59 AM EDT 9:55 PM EDT
Astronomical Twilight 4:17 AM EDT 10:38 PM EDT
Moon 8:02 AM EDT (6/21) 10:13 PM EDT (6/21)
Length of Visible Light 15h 40m
Length of Day
14h 38m
Waxing Crescent, 4% of the Moon is Illuminated
Jun 21
Waxing Crescent
Jun 26
First Quarter
Jul 3
Full
Jul 10
Last Quarter
Jul 19
New

Hourly Weather History & Observations

Time (EDT) Temp. Dew Point Humidity Pressure Visibility Wind Dir Wind Speed Gust Speed Precip Events Conditions
12:35 AM 68.0 °F 60.8 °F 78% 30.24 in 10.0 mi Calm Calm - N/A   Clear
12:55 AM 68.0 °F 60.8 °F 78% 30.23 in 10.0 mi Calm Calm - N/A   Clear
1:15 AM 68.0 °F 60.8 °F 78% 30.23 in 10.0 mi Calm Calm - N/A   Clear
1:35 AM 68.0 °F 60.8 °F 78% 30.22 in 10.0 mi Calm Calm - N/A   Clear
1:55 AM 68.0 °F 60.8 °F 78% 30.22 in 10.0 mi Calm Calm - N/A   Clear
2:15 AM 64.4 °F 59.0 °F 83% 30.21 in 10.0 mi Calm Calm - N/A   Clear
2:35 AM 62.6 °F 60.8 °F 94% 30.21 in 3.0 mi Calm Calm - N/A   Clear
2:55 AM 62.6 °F 60.8 °F 94% 30.21 in 5.0 mi Calm Calm - N/A   Clear
3:15 AM 66.2 °F 60.8 °F 83% 30.20 in 10.0 mi Calm Calm - N/A   Clear
3:35 AM 64.4 °F 60.8 °F 88% 30.20 in 10.0 mi Calm Calm - N/A   Clear
3:55 AM 66.2 °F 60.8 °F 83% 30.20 in 10.0 mi West 5.8 mph - N/A   Scattered Clouds
4:35 AM 62.6 °F 59.0 °F 88% 30.20 in 3.0 mi Calm Calm - N/A   Overcast
4:55 AM 62.6 °F 60.8 °F 94% 30.21 in 7.0 mi Calm Calm - N/A   Overcast
5:15 AM 62.6 °F 60.8 °F 94% 30.20 in 5.0 mi Calm Calm - N/A   Scattered Clouds
5:55 AM 62.6 °F 60.8 °F 94% 30.21 in 7.0 mi Calm Calm - N/A   Clear
6:15 AM 62.6 °F 60.8 °F 94% 30.22 in 4.0 mi Calm Calm - N/A   Mostly Cloudy
6:35 AM 62.6 °F 59.0 °F 88% 30.22 in 4.0 mi Calm Calm - N/A   Mostly Cloudy
6:55 AM 62.6 °F 60.8 °F 94% 30.22 in 7.0 mi Calm Calm - N/A   Scattered Clouds
7:15 AM 64.4 °F 60.8 °F 88% 30.22 in 7.0 mi Calm Calm - N/A   Clear
7:35 AM 64.4 °F 60.8 °F 88% 30.22 in 7.0 mi Calm Calm - N/A   Clear
7:55 AM 66.2 °F 62.6 °F 88% 30.22 in 10.0 mi Calm Calm - N/A   Clear
8:15 AM 68.0 °F 62.6 °F 83% 30.22 in 10.0 mi Calm Calm - N/A   Clear
8:35 AM 69.8 °F 62.6 °F 78% 30.22 in 10.0 mi West 3.5 mph - N/A   Clear
8:55 AM 73.4 °F 60.8 °F 65% 30.22 in 10.0 mi WSW 3.5 mph - N/A   Clear
9:15 AM 73.4 °F 62.6 °F 69% 30.22 in 10.0 mi Calm Calm - N/A   Clear
9:35 AM 75.2 °F 60.8 °F 61% 30.22 in 10.0 mi Calm Calm - N/A   Clear
9:55 AM 75.2 °F 60.8 °F 61% 30.21 in 10.0 mi South 3.5 mph - N/A   Clear
10:15 AM 77.0 °F 60.8 °F 57% 30.20 in 10.0 mi NW 3.5 mph - N/A   Clear
10:35 AM 77.0 °F 60.8 °F 57% 30.20 in 10.0 mi North 4.6 mph - N/A   Clear
10:55 AM 77.0 °F 60.8 °F 57% 30.20 in 7.0 mi NNW 4.6 mph - N/A   Clear
11:15 AM 78.8 °F 59.0 °F 51% 30.20 in 10.0 mi North 5.8 mph - N/A   Clear
11:35 AM 77.0 °F 55.4 °F 47% 30.19 in 10.0 mi Calm Calm - N/A   Clear
11:55 AM 78.8 °F 57.2 °F 47% 30.19 in 10.0 mi ESE 4.6 mph - N/A   Scattered Clouds
12:15 PM 78.8 °F 57.2 °F 47% 30.18 in 10.0 mi Calm Calm - N/A   Scattered Clouds
12:35 PM 78.8 °F 57.2 °F 47% 30.18 in 10.0 mi Calm Calm - N/A   Overcast
12:55 PM 78.8 °F 57.2 °F 47% 30.17 in 10.0 mi WNW 3.5 mph - N/A   Scattered Clouds
1:15 PM 78.8 °F 57.2 °F 47% 30.17 in 10.0 mi Calm Calm - N/A   Clear
1:35 PM 78.8 °F 60.8 °F 54% 30.17 in 10.0 mi Calm Calm - N/A   Scattered Clouds
1:55 PM 78.8 °F 55.4 °F 44% 30.16 in 10.0 mi Calm Calm - N/A   Mostly Cloudy
2:15 PM 77.0 °F 60.8 °F 57% 30.15 in 10.0 mi Calm Calm - N/A   Overcast
2:35 PM 78.8 °F 60.8 °F 54% 30.14 in 10.0 mi Calm Calm - N/A   Mostly Cloudy
2:55 PM 78.8 °F 60.8 °F 54% 30.13 in 10.0 mi Calm Calm - N/A   Scattered Clouds
3:15 PM 78.8 °F 60.8 °F 54% 30.13 in 10.0 mi Calm Calm - N/A   Mostly Cloudy
3:35 PM 77.0 °F 60.8 °F 57% 30.13 in 10.0 mi NNW 8.1 mph - N/A   Overcast
3:55 PM 73.4 °F 60.8 °F 65% 30.12 in 7.0 mi North 8.1 mph 18.4 mph N/A Rain Light Rain
4:15 PM 69.8 °F 60.8 °F 73% 30.12 in 10.0 mi NNW 8.1 mph - N/A   Overcast
4:35 PM 69.8 °F 60.8 °F 73% 30.11 in 10.0 mi NE 3.5 mph - N/A   Overcast
4:55 PM 69.8 °F 60.8 °F 73% 30.12 in 10.0 mi NNW 5.8 mph - N/A Rain Light Rain
5:15 PM 69.8 °F 62.6 °F 78% 30.14 in 7.0 mi West 5.8 mph - N/A Rain Light Rain
5:35 PM 68.0 °F 60.8 °F 78% 30.13 in 4.0 mi Calm Calm - 0.09 in Rain Rain
5:55 PM 68.0 °F 60.8 °F 78% 30.12 in 5.0 mi Calm Calm - 0.10 in Rain Rain
6:15 PM 66.2 °F 62.6 °F 88% 30.09 in 7.0 mi NNW 3.5 mph - N/A Rain Light Rain
6:35 PM 68.0 °F 62.6 °F 83% 30.09 in 10.0 mi Calm Calm - N/A Rain Light Rain
6:55 PM 68.0 °F 62.6 °F 83% 30.09 in 10.0 mi Calm Calm - N/A   Overcast
7:15 PM 68.0 °F 64.4 °F 88% 30.09 in 5.0 mi Calm Calm - N/A   Overcast
7:35 PM 68.0 °F 64.4 °F 88% 30.09 in 5.0 mi Calm Calm - N/A   Overcast
7:55 PM 68.0 °F 62.6 °F 83% 30.09 in 10.0 mi Calm Calm - N/A   Overcast
8:15 PM 66.2 °F 62.6 °F 88% 30.09 in 5.0 mi Calm Calm - N/A   Scattered Clouds
8:35 PM 66.2 °F 64.4 °F 94% 30.09 in 1.8 mi Calm Calm - N/A   Mostly Cloudy
9:15 PM 66.2 °F 62.6 °F 88% 30.08 in 10.0 mi Calm Calm - N/A   Scattered Clouds
9:35 PM 64.4 °F 62.6 °F 94% 30.08 in 5.0 mi WSW 3.5 mph - N/A   Scattered Clouds
9:55 PM 66.2 °F 62.6 °F 88% 30.09 in 10.0 mi Calm Calm - N/A   Scattered Clouds
10:15 PM 64.4 °F 62.6 °F 94% 30.09 in 1.2 mi Calm Calm - N/A   Overcast
10:35 PM 64.4 °F 62.6 °F 94% 30.09 in 7.0 mi Calm Calm - N/A   Overcast
11:15 PM 64.4 °F 62.6 °F 94% 30.10 in 7.0 mi Calm Calm - N/A   Overcast
11:35 PM 64.4 °F 62.6 °F 94% 30.11 in 1.0 mi Calm Calm - N/A   Overcast
11:55 PM 64.4 °F 62.6 °F 94% 30.11 in 0.5 mi Calm Calm - N/A Rain Rain